User: anonymous   Login
Location: Onan Observatory
(44.8103°N, 93.9397°W)
Time: 01:56:09
(UTC-06:00)
Language:

Iridium 90 - Orbit

View from above orbital plane
View from above orbital plane
View from above satellite
View from above satellite

Ground track
Ground track

The orbit data is extracted from the following two-line orbital elements,

1 27373U 02005B   17017.50064652 -.00000026  00000-0 -13681-4 0  9996
2 27373  86.4448  53.0692 0002153  94.0613 266.0834 14.42948431789628
Epoch (UTC): 17 January 2017 12:00:55
Eccentricity: 0.0002153
inclination: 86.4448°
perigee height: 747 km
apogee height: 750 km
right ascension of ascending node: 53.0692°
argument of perigee: 94.0613°
revolutions per day: 14.42948431
mean anomaly at epoch: 266.0834°
orbit number at epoch: 78962

The dashed part of the orbit path shows where the satellite is in the earth's shadow,  

DLR